AirNav   Air Wisconsin Airman Trainee
 
 429 users online  

TS50 Austinia Airport
Texas City, Texas, USA

GOING TO TEXAS CITY?


FAA INFORMATION EFFECTIVE 28 MARCH 2019

Location

FAA Identifier: TS50
Lat/Long: 29-25-02.8360N / 094-59-53.7330W
29-25.047267N / 094-59.895550W
29.4174544 / -94.9982592
(estimated)
Elevation: 15 ft. / 5 m (estimated)
Variation: 06E (1985)
From city: 5 miles NW of TEXAS CITY, TX
Time zone: UTC -5 (UTC -6 during Standard Time)
Zip code: 77590

Airport Operations

Airport use: Private use. Permission required prior to landing
Activation date: 05/1979
Control tower: no
ARTCC: HOUSTON CENTER
FSS: MONTGOMERY COUNTY FLIGHT SERVICE STATION
Attendance: UNATNDD
Wind indicator: yes
Segmented circle: no

Airport Communications

WX ASOS at GLS (12 nm SE): 119.275 (409-740-9248)
WX ASOS at LVJ (14 nm NW): 118.525 (281-992-1853)

Nearby radio navigation aids

VOR radial/distance  VOR name  Freq  Var
VUHr316/11.2SCHOLES VOR/DME113.0006E
MHFr232/15.2TRINITY VOR/DME113.6007E
HUBr130/20.4HOBBY VOR/DME117.1005E
IAHr146/37.1HUMBLE VORTAC116.6005E

 
NDB name  Hdg/Dist  Freq  Var  ID
GALVESTON284/13.620608EGLS --. .-.. ...
NIXIN157/36.432605EBVP -... ...- .--.

Airport Services

Runway Information

Runway N/S

Dimensions: 2150 x 100 ft. / 655 x 30 m
Surface: turf
RUNWAY N  RUNWAY S
Traffic pattern: leftleft
Obstructions: 20 ft. trees30 ft. pline

Airport Ownership and Management from official FAA records

Ownership: Privately-owned
Owner: C MICHAEL ORR
2008 TEXAS AVE
TEXAS CITY, TX 77590
Phone 409-948-3461
Manager: C MICHAEL ORR
2008 TEXAS AVE
TEXAS CITY, TX 77590
Phone 409-948-3461

Airport Operational Statistics

Aircraft based on the field: 1
Single engine airplanes: 1
    

Instrument Procedures

There are no published instrument procedures at TS50.

Some nearby airports with instrument procedures:

KGLS - Scholes International Airport at Galveston (12 nm SE)
KEFD - Ellington Airport (14 nm NW)
KLVJ - Pearland Regional Airport (14 nm NW)
T41 - La Porte Municipal Airport (15 nm N)
KHOU - William P Hobby Airport (20 nm NW)
 
Loc | Ops | Rwys | IFR | FBO | Links
Com | Nav | Svcs | Stats | Notes
Area around TS50 (Austinia Airport)
 
Road maps at: MapQuest Bing Google
 
Aerial photo
No photo
 
Sectional chart

 
Airport distance calculator
Flying to Austinia Airport? Find the distance to fly.

From to TS50

Sunrise and sunset
Times for 21-Apr-2019
 Local
(UTC-5)
 Zulu
(UTC)
Morning civil twilight06:2411:24
Sunrise06:4811:48
Sunset19:4900:49
Evening civil twilight20:1401:14

Current date and time
Zulu (UTC)  21-Apr-2019 05:27:58
Local (UTC-5)  21-Apr-2019 00:27:58
 
METAR
KGLS 
11nm SE 
210452Z AUTO 19009KT 10SM CLR 19/12 A3004 RMK AO2 SLP173 T01890117
KEFD 
14nm NW 
210350Z 18005KT 10SM CLR 17/10 A3003
KLVJ 
14nm NW 
210453Z AUTO 00000KT 10SM CLR 16/12 A3004 RMK AO2 SLP173 T01610122
KHOU 
20nm NW 
210453Z 18007KT 10SM CLR 17/11 A3002 RMK AO2 SLP171 T01670106
TAF
KGLS 
11nm SE 
201720Z 2018/2118 18008KT P6SM SKC FM211400 16014KT P6SM FEW250
KEFD 
14nm NW 
202000Z 2020/2202 24009KT 9999 SKC QNH3000INS BECMG 2023/2024 17006KT 9999 SKC QNH3001INS BECMG 2114/2115 16012G18KT 9999 SKC QNH3004INS BECMG 2123/2124 14009KT 9999 FEW150 QNH3002INS TX25/2021Z TN10/2111Z
KHOU 
20nm NW 
202112Z 2021/2118 24005KT P6SM SKC FM210200 18003KT P6SM SKC FM211500 16011KT P6SM FEW250
NOTAMs
Click for the latest NOTAMs
NOTAMs are issued by the DoD/FAA and will open in a separate window not controlled by AirNav.

 

 
 

Would you like to see your business listed on this page?

 If your business provides an interesting product or service to pilots, flight crews, aircraft, or users of the Austinia Airport, you should consider listing it here.  To start the listing process, click on the button below
 
Add a business
 

Other Pages about Austinia Airport

Update a link
 
Copyright © AirNav, LLC. All rights reserved. Privacy Policy  Contact